KD7JB Weather Reports


time (UTC)temp
C
wind
direction
speed
KPH
gust
KPH
rain 1hr
cm
rain 24hr
cm
rain mn
cm
humidity
%
barometer
mb
20260504201955 20 242 6.4 16.1 0.00 0.00 0.00 33 1172.6
20260504201452 20 250 8.0 14.5 0.00 0.00 0.00 34 1172.7
20260504200950 21 300 9.7 12.9 0.00 0.00 0.00 33 1172.7
20260504200447 20 303 9.7 12.9 0.00 0.00 0.00 35 1172.6
20260504195943 20 306 4.8 6.4 0.00 0.00 0.00 36 1172.8
20260504195439 20 10 4.8 9.7 0.00 0.00 0.00 35 1172.7
20260504194936 20 13 14.5 16.1 0.00 0.00 0.00 36 1172.9
20260504194432 21 349 4.8 11.3 0.00 0.00 0.00 34 1172.7
20260504193928 20 286 4.8 9.7 0.00 0.00 0.00 36 1172.8
20260504193425 20 328 3.2 14.5 0.00 0.00 0.00 34 1172.8
20260504192924 21 6 0.0 3.2 0.00 0.00 0.00 34 1172.7
20260504192421 21 57 3.2 6.4 0.00 0.00 0.00 34 1172.9
20260504191920 20 142 6.4 11.3 0.00 0.00 0.00 34 1173.0
20260504191418 20 61 6.4 11.3 0.00 0.00 0.00 33 1172.9
20260504190912 20 151 6.4 9.7 0.00 0.00 0.00 34 1173.0
20260504190408 20 41 6.4 11.3 0.00 0.00 0.00 34 1172.9
20260504185905 20 89 3.2 12.9 0.00 0.00 0.00 34 1173.0
20260504185402 20 38 8.0 14.5 0.00 0.00 0.00 34 1173.1
20260504184858 20 79 3.2 14.5 0.00 0.00 0.00 34 1173.0
20260504184354 20 27 1.6 9.7 0.00 0.00 0.00 35 1172.9
20260504183850 20 77 4.8 9.7 0.00 0.00 0.00 33 1173.1
20260504183348 20 103 14.5 20.9 0.00 0.00 0.00 32 1173.0
20260504182845 20 73 9.7 11.3 0.00 0.00 0.00 32 1172.9
20260504182343 19 91 3.2 14.5 0.00 0.00 0.00 35 1173.1
20260504181839 20 63 6.4 12.9 0.00 0.00 0.00 33 1173.1
20260504181337 19 146 11.3 17.7 0.00 0.00 0.00 33 1173.3
20260504180836 19 133 8.0 12.9 0.00 0.00 0.00 35 1173.1
20260504180333 19 6 12.9 16.1 0.00 0.00 0.00 34 1173.3
20260504175832 20 25 4.8 14.5 0.00 0.00 0.00 35 1173.4
20260504175328 20 41 6.4 12.9 0.00 0.00 0.00 35 1173.3
20260504174826 19 54 4.8 16.1 0.00 0.00 0.00 36 1173.1
20260504174323 20 39 3.2 11.3 0.00 0.00 0.00 37 1173.3
20260504173820 20 94 6.4 11.3 0.00 0.00 0.00 36 1173.3
20260504173317 20 62 4.8 9.7 0.00 0.00 0.00 38 1173.1
20260504172814 19 18 1.6 6.4 0.00 0.00 0.00 38 1173.1
20260504172310 19 70 6.4 14.5 0.00 0.00 0.00 37 1173.0
20260504171806 18 135 3.2 9.7 0.00 0.00 0.00 39 1173.0
20260504171304 18 52 6.4 11.3 0.00 0.00 0.00 37 1173.1
20260504170801 18 45 4.8 12.9 0.00 0.00 0.00 36 1173.3
20260504170258 18 353 1.6 11.3 0.00 0.00 0.00 36 1173.1
20260504160216 18 58 8.0 12.9 0.00 0.00 0.00 35 1173.1
20260504151144 17 44 3.2 6.4 0.00 0.00 0.00 38 1173.1
20260504150641 17 43 6.4 12.9 0.00 0.00 0.00 38 1173.0
20260504150138 17 37 6.4 9.7 0.00 0.00 0.00 38 1173.1
20260504141107 16 38 1.6 9.7 0.00 0.00 0.00 40 1172.9
20260504140603 16 15 4.8 6.4 0.00 0.00 0.00 40 1172.7
20260504130527 15 36 1.6 9.7 0.00 0.00 0.00 42 1172.7
20260504110415 15 1 3.2 6.4 0.00 0.00 0.00 40 1172.8
20260504100332 16 26 4.8 6.4 0.00 0.00 0.00 40 1172.9
20260504081725 16 28 1.6 4.8 0.00 0.00 0.00 39 1173.0
20260504081222 16 43 3.2 3.2 0.00 0.00 0.00 39 1173.1
20260504080718 16 31 1.6 4.8 0.00 0.00 0.00 41 1173.1
20260504080215 16 26 1.6 3.2 0.00 0.00 0.00 41 1173.1
20260504070142 16 31 6.4 6.4 0.00 0.00 0.00 43 1173.1
20260504050531 17 352 4.8 9.7 0.00 0.00 0.00 45 1173.5
20260504045525 17 343 4.8 6.4 0.00 0.00 0.00 45 1173.6
20260504045020 17 344 6.4 6.4 0.00 0.00 0.00 45 1173.6
20260504044518 17 329 4.8 6.4 0.00 0.00 0.00 45 1173.6
20260504044015 17 337 6.4 6.4 0.00 0.00 0.00 45 1173.5
20260504043512 17 349 6.4 6.4 0.00 0.00 0.00 45 1173.5
20260504043009 17 334 4.8 4.8 0.00 0.00 0.00 44 1173.6
20260504042506 17 339 4.8 6.4 0.00 0.00 0.00 45 1173.5
20260504042003 17 326 6.4 6.4 0.00 0.00 0.00 44 1173.5
20260504041459 17 321 6.4 9.7 0.00 0.00 0.00 44 1173.5
20260504040954 17 338 3.2 4.8 0.00 0.00 0.00 44 1173.6
20260504040453 17 345 4.8 4.8 0.00 0.00 0.00 44 1173.5
20260504035948 17 1 3.2 4.8 0.00 0.00 0.00 43 1173.6
20260504035446 17 15 0.0 0.0 0.00 0.00 0.00 43 1173.5
20260504034942 17 354 0.0 0.0 0.00 0.00 0.00 43 1173.4
20260504034440 17 351 0.0 0.0 0.00 0.00 0.00 44 1173.3
20260504033937 17 357 0.0 0.0 0.00 0.00 0.00 44 1173.4
20260504033434 17 354 0.0 0.0 0.00 0.00 0.00 44 1173.0
20260504032932 17 338 0.0 0.0 0.00 0.00 0.00 44 1173.3
20260504032429 16 355 0.0 0.0 0.00 0.00 0.00 46 1173.4
20260504031925 17 4 0.0 0.0 0.00 0.00 0.00 46 1173.0
20260504031422 17 5 0.0 0.0 0.00 0.00 0.00 45 1173.0
20260504030919 17 6 0.0 0.0 0.00 0.00 0.00 45 1173.3
20260504030416 18 5 0.0 0.0 0.00 0.00 0.00 44 1173.3
20260504025912 18 223 1.6 3.2 0.00 0.00 0.00 43 1173.3
20260504025409 18 204 3.2 4.8 0.00 0.00 0.00 42 1173.1
20260504024906 19 202 6.4 6.4 0.00 0.00 0.00 40 1173.1
20260504024403 20 342 0.0 0.0 0.00 0.00 0.00 40 1173.1
20260504023900 20 315 0.0 0.0 0.00 0.00 0.00 39 1173.0
20260504023356 20 324 1.6 1.6 0.00 0.00 0.00 38 1173.3
20260504022851 20 333 0.0 1.6 0.00 0.00 0.00 39 1173.0
20260504022348 20 228 3.2 3.2 0.00 0.00 0.00 38 1173.1
20260504021845 20 324 1.6 4.8 0.00 0.00 0.00 39 1173.1
20260504021343 20 283 3.2 4.8 0.00 0.00 0.00 39 1173.3
20260504020840 20 222 3.2 4.8 0.00 0.00 0.00 39 1173.1
20260504020336 20 227 3.2 9.7 0.00 0.00 0.00 38 1173.4
20260504015832 20 203 3.2 6.4 0.00 0.00 0.00 38 1173.1
20260504015328 20 224 6.4 11.3 0.00 0.00 0.00 38 1173.4
20260504014825 21 234 4.8 6.4 0.00 0.00 0.00 39 1173.5
20260504014321 21 252 6.4 11.3 0.00 0.00 0.00 37 1173.4
20260504013819 21 297 4.8 6.4 0.00 0.00 0.00 37 1173.4
20260504013316 21 278 6.4 9.7 0.00 0.00 0.00 36 1173.5
20260504012813 21 215 4.8 9.7 0.00 0.00 0.00 36 1173.5
20260504012311 21 209 4.8 9.7 0.00 0.00 0.00 37 1173.6
20260504011808 21 308 9.7 12.9 0.00 0.00 0.00 36 1173.5
20260504011304 21 296 4.8 9.7 0.00 0.00 0.00 36 1173.4
20260504010800 21 244 6.4 11.3 0.00 0.00 0.00 37 1173.6
20260504010256 21 278 6.4 11.3 0.00 0.00 0.00 37 1173.6
20260504005753 21 222 6.4 9.7 0.00 0.00 0.00 36 1173.7
20260504005250 21 206 8.0 11.3 0.00 0.00 0.00 36 1173.8
20260504004748 21 216 11.3 16.1 0.00 0.00 0.00 35 1173.7
20260504004245 21 251 4.8 12.9 0.00 0.00 0.00 36 1173.8
20260504003741 21 299 6.4 9.7 0.00 0.00 0.00 34 1173.9
20260504003238 21 284 4.8 9.7 0.00 0.00 0.00 35 1173.9
20260504002734 21 275 6.4 9.7 0.00 0.00 0.00 36 1174.0
20260504002232 21 215 4.8 11.3 0.00 0.00 0.00 34 1174.0
20260504001729 22 215 9.7 12.9 0.00 0.00 0.00 36 1174.2
20260504001226 21 329 1.6 6.4 0.00 0.00 0.00 34 1174.2
20260504000722 22 250 4.8 9.7 0.00 0.00 0.00 35 1174.3
20260504000219 22 242 6.4 12.9 0.00 0.00 0.00 35 1174.2
20260503235718 21 301 6.4 9.7 0.00 0.00 0.00 37 1174.3
20260503235215 21 212 6.4 9.7 0.00 0.00 0.00 33 1174.4
20260503234712 21 279 4.8 16.1 0.00 0.00 0.00 35 1174.5
20260503234210 21 237 6.4 14.5 0.00 0.00 0.00 35 1174.4
20260503233707 22 342 11.3 16.1 0.00 0.00 0.00 32 1174.5
20260503233202 22 309 4.8 6.4 0.00 0.00 0.00 32 1174.4
20260503232700 21 238 4.8 12.9 0.00 0.00 0.00 32 1174.5
20260503232157 21 277 4.8 9.7 0.00 0.00 0.00 32 1174.7
20260503231655 22 257 9.7 11.3 0.00 0.00 0.00 33 1174.7
20260503231151 22 243 6.4 11.3 0.00 0.00 0.00 32 1175.1
20260503230648 22 329 4.8 12.9 0.00 0.00 0.00 34 1174.8
20260503230146 22 262 8.0 9.7 0.00 0.00 0.00 34 1174.9
20260503225642 22 258 3.2 4.8 0.00 0.00 0.00 34 1174.7
20260503225142 22 269 3.2 4.8 0.00 0.00 0.00 33 1175.1
20260503224640 22 304 4.8 6.4 0.00 0.00 0.00 31 1175.4
20260503224138 21 299 8.0 9.7 0.00 0.00 0.00 32 1175.2
20260503223635 21 303 14.5 17.7 0.00 0.00 0.00 33 1175.2
20260503223131 21 263 14.5 17.7 0.00 0.00 0.00 34 1175.3
20260503222629 22 279 3.2 14.5 0.00 0.00 0.00 33 1175.5
20260503222126 21 302 3.2 9.7 0.00 0.00 0.00 35 1175.6
20260503221625 21 296 11.3 12.9 0.00 0.00 0.00 32 1175.5
20260503221122 21 160 14.5 16.1 0.00 0.00 0.00 33 1175.6
20260503220618 21 351 0.0 4.8 0.00 0.00 0.00 34 1175.6
20260503220115 21 241 4.8 11.3 0.00 0.00 0.00 33 1175.8
20260503215612 21 206 9.7 14.5 0.00 0.00 0.00 35 1175.7
20260503215108 21 223 8.0 12.9 0.00 0.00 0.00 33 1176.0
20260503214607 21 283 11.3 12.9 0.00 0.00 0.00 33 1175.7
20260503214103 21 161 1.6 11.3 0.00 0.00 0.00 33 1176.0
20260503213602 21 262 8.0 17.7 0.00 0.00 0.00 35 1176.0
20260503213058 22 310 9.7 16.1 0.00 0.00 0.00 35 1175.8
20260503212556 21 11 1.6 3.2 0.00 0.00 0.00 36 1176.1
20260503212053 21 3 9.7 12.9 0.00 0.00 0.00 36 1176.0
20260503211550 21 273 11.3 12.9 0.00 0.00 0.00 35 1176.3
20260503211045 20 6 1.6 3.2 0.00 0.00 0.00 35 1176.2
20260503210542 21 12 8.0 11.3 0.00 0.00 0.00 35 1176.4
20260503210038 20 317 3.2 9.7 0.00 0.00 0.00 36 1176.4
20260503205535 20 297 4.8 6.4 0.00 0.00 0.00 38 1176.3
20260503205031 20 24 6.4 12.9 0.00 0.00 0.00 38 1176.5
20260503204528 20 353 11.3 12.9 0.00 0.00 0.00 37 1176.5
20260503204025 20 328 6.4 11.3 0.00 0.00 0.00 36 1176.7
20260503203523 20 28 6.4 12.9 0.00 0.00 0.00 35 1176.6
20260503203020 20 309 6.4 12.9 0.00 0.00 0.00 37 1176.6
20260503202517 20 70 9.7 11.3 0.00 0.00 0.00 37 1176.5